Погода в Юлове

Россия / Ульяновская область     53°57′48″N   46°28′40″E
темп.,
°C
ветер,
м/с
пор.,
м/с
влажн.,
%
обл.,
%
осадки,
мм/ч
давл.,
гПа
погр.,
м
13 мая, чт
чт1301:00+13вюв2108911 0.1 1023225
04:00+13в288223 0.1 1022197
07:00+15вюв4146853 0.0 1021445
10:00+15вюв31083100 1.1 1021471
13:00+17вюв5138296 1.2 1020708
16:00+22юв6136398 1.8 10181891
19:00+20ю411682 0.1 10191156
22:00+15юв2290100 0.1 101940
14 мая, пт
пт1401:00+13юв229225 0.0 101929
04:00+13ю2293100 0.0 102023
07:00+16ююв1285100 0.0 102180
10:00+21ююв2465100 0.0 1020486
13:00+24ююв4653100 0.0 10201141
16:00+25ю46431 0.0 10191550
19:00+22ю38625 0.0 1019394
22:00+17ююв31079100 0.0 1019187
15 мая, сб
сб1501:00+17ююв31369100 0.0 1019270
04:00+15ююв3136566 0.0 1019267
07:00+17ююв4135970 0.0 1019316
10:00+23ю5134234 0.0 1018688
13:00+26ю6113125 0.0 10181225
16:00+26ю51136100 0.0 10181539
19:00+23ююв5124784 0.0 1017657
22:00+18ююв3136246 0.0 1017264
16 мая, вс
вс1601:00+18ююв4165328 0.0 1016400
04:00+17ююв4165728 0.0 1016367
07:00+17ю4145947 0.0 1016394
10:00+23ю5104422 0.0 1016617
13:00+26ююз583633 0.0 10161128
16:00+27ююз510375 0.0 10152243
19:00+23ююз38565 0.0 1015332
22:00+17ююз23665 0.0 101636
17 мая, пн
пн1701:00+16ю226678 0.0 101619
04:00+15ююв006725 0.0 101711
07:00+19вюв126644 0.0 101779
10:00+24ююв234593 0.0 1017396
13:00+29ю34335 0.0 10161797
16:00+29ю233290 0.0 10152886
19:00+21св246256 0.5 101670
22:00+17вюв246355 0.5 101754